[Iaude] MPEC Y64: 2010 TJ181 [a=2.55,e=0.61,i=19.5,H=23.14]

mpec at marsden.cfa.harvard.edu mpec at marsden.cfa.harvard.edu
Wed Dec 20 08:57:11 EST 2023


M.P.E.C. 2023-Y64                             Issued 2023 December 20, 13:55 UT

     The Minor Planet Electronic Circulars contain information on unusual
         minor planets, routine data on comets and natural satellites,
         and occasional editorial announcements.  They are published
    on behalf of Division F of the International Astronomical Union by the
          Minor Planet Center, Smithsonian Astrophysical Observatory,
                          Cambridge, MA 02138, U.S.A.
			  
             Prepared using the Tamkin Foundation Computer Network

                              MPC at CFA.HARVARD.EDU
            URL https://www.minorplanetcenter.net/    ISSN 1523-6714

                                   2010 TJ181                                   


Additional Observations:
     K10TI1J  C2010 08 25.62442503 23 40.522-28 28 00.34         20.62GVEY064F51
     K10TI1J  C2010 08 27.62394403 36 01.611-22 03 58.12         20.35GVEY064F51
     K10TI1J  C2010 08 28.61763003 42 15.769-18 31 01.34         20.16GVEY064F51
     K10TI1J  C2010 08 30.60071303 54 53.683-10 45 09.29         21.52GVEY064F51
     K10TI1J  C2010 08 30.61210703 54 57.746-10 42 20.34         21.13GVEY064F51
     K10TI1J  S2010 09 07.40577804 46 41.01 +22 56 23.7                 EY064C51
     K10TI1J  s2010 09 07.4057781 + 1458.2788 + 6144.6943 + 2795.4481   EY064C51
     K10TI1J  S2010 09 07.40590504 46 41.01 +22 56 23.8                 EY064C51
     K10TI1J  s2010 09 07.4059051 + 1477.4078 + 6174.1167 + 2719.8195   EY064C51
     K10TI1J  S2010 09 07.53808204 47 35.16 +23 27 36.6                 EY064C51
     K10TI1J  s2010 09 07.5380821 + 1447.2908 + 6152.4412 + 2784.4847   EY064C51
     K10TI1J  S2010 09 07.80243604 49 23.75 +24 29 13.8                 EY064C51
     K10TI1J  s2010 09 07.8024361 + 1387.4155 + 6108.1924 + 2908.3554   EY064C51
     K10TI1J  S2010 09 07.86826904 49 50.60 +24 44 27.2                 EY064C51
     K10TI1J  s2010 09 07.8682691 + 1333.2380 + 6031.1283 + 3088.3738   EY064C51
     K10TI1J  S2010 09 07.93461204 50 17.83 +24 59 42.7                 EY064C51
     K10TI1J  s2010 09 07.9346121 + 1357.4413 + 6084.7743 + 2971.0084   EY064C51
     K10TI1J  S2010 09 08.00070104 50 44.71 +25 14 51.5                 EY064C51
     K10TI1J  s2010 09 08.0007011 + 1342.4512 + 6073.1153 + 3001.7012   EY064C51
     K10TI1J  S2010 09 08.06678904 51 11.94 +25 29 56.1                 EY064C51
     K10TI1J  s2010 09 08.0667891 + 1327.2580 + 6060.8568 + 3033.2285   EY064C51
     K10TI1J  S2010 09 08.13287804 51 39.23 +25 44 54.8                 EY064C51
     K10TI1J  s2010 09 08.1328781 + 1312.2142 + 6048.6975 + 3063.9152   EY064C51
     K10TI1J  S2010 09 08.26505404 52 33.36 +26 14 48.4                 EY064C51
     K10TI1J  s2010 09 08.2650541 + 1282.0988 + 6023.4572 + 3125.4452   EY064C51
     K10TI1J  S2010 09 08.39723104 53 27.87 +26 44 23.0                 EY064C51
     K10TI1J  s2010 09 08.3972311 + 1252.3924 + 5997.9147 + 3185.3851   EY064C51
     K10TI1J  S2010 09 08.52953504 54 22.29 +27 13 48.7                 EY064C51
     K10TI1J  s2010 09 08.5295351 + 1241.9640 + 6006.1691 + 3174.2359   EY064C51
     K10TI1J  S2010 09 08.66171204 55 16.61 +27 42 56.5                 EY064C51
     K10TI1J  s2010 09 08.6617121 + 1211.9355 + 5979.7239 + 3234.7014   EY064C51
     K10TI1J  S2010 10 10.53169508 12 01.14 +67 48 07.3                 EY064C51
     K10TI1J  s2010 10 10.5316951 - 1491.4906 + 2185.0876 + 6369.7748   EY064C51
     K10TI1J  S2010 10 10.79617608 13 10.73 +67 52 21.8                 EY064C51
     K10TI1J  s2010 10 10.7961761 - 1494.8704 + 2149.1142 + 6380.7331   EY064C51
     K10TI1J  S2010 10 11.06065608 14 19.94 +67 56 29.2                 EY064C51
     K10TI1J  s2010 10 11.0606561 - 1497.0430 + 2112.3257 + 6392.6955   EY064C51
     K10TI1J  S2010 10 11.25904908 15 11.27 +67 59 30.6                 EY064C51
     K10TI1J  s2010 10 11.2590491 - 1503.9334 + 2104.2060 + 6393.7999   EY064C51
     K10TI1J  S2010 10 11.45744108 16 02.41 +68 02 32.7                 EY064C51
     K10TI1J  s2010 10 11.4574411 - 1509.9269 + 2095.9808 + 6395.0837   EY064C51
     K10TI1J  S2010 10 11.52365708 16 19.20 +68 03 32.7                 EY064C51
     K10TI1J  s2010 10 11.5236571 - 1524.5271 + 2143.1596 + 6376.0864   EY064C51
     K10TI1J  S2010 10 11.58974508 16 35.94 +68 04 32.6                 EY064C51
     K10TI1J  s2010 10 11.5897451 - 1520.3207 + 2114.5058 + 6386.5754   EY064C51
     K10TI1J  S2010 10 11.65583308 16 52.92 +68 05 33.3                 EY064C51
     K10TI1J  s2010 10 11.6558331 - 1516.0903 + 2086.1353 + 6396.7326   EY064C51
     K10TI1J  S2010 10 11.72192108 17 09.37 +68 06 30.4                 EY064C51
     K10TI1J  s2010 10 11.7219211 - 1511.8866 + 2058.0869 + 6406.6494   EY064C51
     K10TI1J  S2010 10 11.72204908 17 09.70 +68 06 31.0                 EY064C51
     K10TI1J  s2010 10 11.7220491 - 1531.3271 + 2134.3280 + 6377.0549   EY064C51
     K10TI1J  S2010 10 11.78813708 17 26.36 +68 07 30.3                 EY064C51
     K10TI1J  s2010 10 11.7881371 - 1527.1244 + 2106.6149 + 6387.1599   EY064C51
     K10TI1J  S2010 10 11.85422608 17 42.84 +68 08 29.6                 EY064C51
     K10TI1J  s2010 10 11.8542261 - 1522.8164 + 2079.4251 + 6397.0760   EY064C51
     K10TI1J  S2010 10 11.92031408 17 59.56 +68 09 29.7                 EY064C51
     K10TI1J  s2010 10 11.9203141 - 1518.2861 + 2051.1484 + 6407.4341   EY064C51
     K10TI1J  S2010 10 11.92044108 17 59.61 +68 09 28.4                 EY064C51
     K10TI1J  s2010 10 11.9204411 - 1537.8380 + 2126.7357 + 6378.0969   EY064C51
     K10TI1J  S2010 10 11.98653008 18 16.02 +68 10 26.3                 EY064C51
     K10TI1J  s2010 10 11.9865301 - 1533.4827 + 2099.3317 + 6388.2398   EY064C51
     K10TI1J  S2010 10 12.05261808 18 33.17 +68 11 25.4                 EY064C51
     K10TI1J  s2010 10 12.0526181 - 1528.8143 + 2070.8444 + 6398.6066   EY064C51
     K10TI1J  S2010 10 12.11870608 18 49.51 +68 12 24.2                 EY064C51
     K10TI1J  s2010 10 12.1187061 - 1524.3025 + 2042.3463 + 6408.8417   EY064C51
     K10TI1J  S2010 10 12.11883408 18 49.33 +68 12 23.8                 EY064C51
     K10TI1J  s2010 10 12.1188341 - 1544.2840 + 2118.4739 + 6379.3183   EY064C51
     K10TI1J  S2010 10 12.18492208 19 06.04 +68 13 20.6                 EY064C51
     K10TI1J  s2010 10 12.1849221 - 1539.9022 + 2090.2949 + 6389.6337   EY064C51
     K10TI1J  S2010 10 12.25101008 19 22.65 +68 14 18.5                 EY064C51
     K10TI1J  s2010 10 12.2510101 - 1535.4055 + 2062.1814 + 6399.8543   EY064C51
     K10TI1J  S2010 10 12.31709808 19 38.90 +68 15 15.4                 EY064C51
     K10TI1J  s2010 10 12.3170981 - 1530.8204 + 2034.3085 + 6409.8294   EY064C51
     K10TI1J  S2010 10 12.44902508 20 11.71 +68 17 10.4                 EY064C51
     K10TI1J  s2010 10 12.4490251 - 1480.0842 + 1828.8827 + 6483.1360   EY064C51
     K10TI1J  S2010 10 12.58170608 20 44.47 +68 19 02.9                 EY064C51
     K10TI1J  s2010 10 12.5817061 - 1552.0297 + 2072.7715 + 6392.4624   EY064C51
     K10TI1J  S2010 10 12.71388308 21 16.48 +68 20 55.4                 EY064C51
     K10TI1J  s2010 10 12.7138831 - 1542.7686 + 2017.1870 + 6412.1342   EY064C51
     K10TI1J  S2010 10 12.84618708 21 49.05 +68 22 47.0                 EY064C51
     K10TI1J  s2010 10 12.8461871 - 1553.9765 + 2037.9858 + 6402.7244   EY064C51

Observer details:
C51 WISE.  Observer .  Measurer S. Deen.
F51 Pan-STARRS 1, Haleakala.  Observers J. Herman, T. Lowe, P. Minguez, A.
    Schultz, I. Smith.  Measurers K. Chambers, T. de Boer, S. Deen, J.
    Fairlamb, H. Gao, M. Huber, C.-C. Lin, E. Magnier, Y. Ramanjooloo, R.
    Wainscoat, R. Weryk.  1.8-m Ritchey-Chretien + CCD.

Orbital elements:
2010 TJ181                                               Earth MOID = 0.0117 AU
Epoch 2023 Sept. 13.0 TT = JDT 2460200.5                Veres                   
M  67.53300              (2000.0)            P               Q                  
n   0.24243463     Peri.   15.01794     +0.99322657     -0.10151968             
a   2.5472580      Node   350.26779     +0.03657079     +0.73485253             
e   0.6053752      Incl.   19.53382     +0.11028849     +0.67058595             
P   4.07           H   23.14          G   0.15           U   7                  
Residuals in seconds of arc
100825 F51  0.1+  0.1-    100908 C51  2.1+  0.4+    101011 C51  0.8+  1.2-
100827 F51  0.3-  0.1+    100908 C51  1.1+  1.7+    101011 C51  0.4+  0.8-
100828 F51  0.1-  0.0     101010 C51  0.1+  0.8-    101011 C51  0.8-  0.3-
100830 F51  0.1-  0.1-    101010 C51  0.8+  1.1+    101011 C51  0.4-  1.3+
100830 F51  0.1+  0.1+    101010 C51  0.3-  1.7+    101011 C51  0.4-  0.4-
100907 C51  0.8+  1.1+    101010 C51  0.7+  0.2+    101011 C51  1.6-  0.8-
100907 C51  0.0   1.7-    101011 C51  0.8+  1.1+    101012 C51  1.7+  0.2+
100907 C51  0.5+  1.3+    101011 C51  2.2-  0.7-    101012 C51  0.6+  1.1+
100907 C51  4.0+  0.3+    101011 C51  0.7+  1.1-    101012 C51  0.7-  0.3+
100907 C51  2.2+  3.6+    101011 C51  0.1-  0.4-    101012 C51  0.5+  0.6-
100907 C51  2.1+  1.4+    101011 C51  0.7+  0.3-    101012 C51  1.4+  0.1-
100908 C51  1.2-  1.7+    101011 C51  1.6+  0.4-    101012 C51  0.5+  0.4-
100908 C51  0.2+  1.4+    101011 C51  0.7+  0.8-    101012 C51  1.7+  1.6+
100908 C51  2.2+  1.1-    101011 C51  0.1+  0.5-    101012 C51  1.9+  0.6-
100908 C51  0.1-  1.1+    101011 C51  1.0+  0.8+    101012 C51  0.1-  0.3-
100908 C51  2.2+  1.0-    101011 C51  0.8-  1.3-    101012 C51  1.6+  0.5-

Ephemeris:
2010 TJ181               a,e,i = 2.55, 0.61, 20                  q = 1.0052
Date    TT    R. A. (2000) Decl.     Delta      r    Elong.  Phase     V
2023 11 20    11 26 39.8 +10 13 13   3.4285  3.2077    68.9    16.7    29.2
...
2023 12 05    11 35 01.3 +09 10 50   3.2708  3.2763    81.7    17.3    29.2
...
2023 12 13    11 38 02.4 +08 46 39   3.1809  3.3116    88.9    17.3    29.2
...
2023 12 19    11 39 33.7 +08 33 06   3.1123  3.3375    94.5    17.1    29.1
2023 12 20    11 39 45.0 +08 31 14   3.1009  3.3418    95.5    17.0    29.1
2023 12 21    11 39 55.2 +08 29 29   3.0895  3.3461    96.5    17.0    29.1
...
2023 12 27    11 40 31.5 +08 21 24   3.0213  3.3713   102.3    16.6    29.1
...
2024 01 04    11 40 11.4 +08 17 11   2.9329  3.4042   110.5    15.7    29.0
...
2024 01 19    11 35 49.5 +08 29 36   2.7837  3.4636   126.8    13.2    28.8

A. U. Tomatic                (C) Copyright 2023 MPC           M.P.E.C. 2023-Y64





More information about the Iaude mailing list